SCP
0 0 0 0 0 0 0 0 0 0 0 0 0 0 0 0 0 0 0 0 0 0 0 0 0 0 0 0 0 0 0 0 0 0 0 0 0 0 0 0 0 0 0
0 0 0 0 0 0 0 0 0 0 0 0 0 0 0 0 0 0 0 0 0 0 0 0 0 0 0 0 0 0 0 0 0 0 0 0 0 0 0 0 0 0 0
0 0 0 0 0 0 0 0 0 0 0 0 0 0 0 0 0 0 0 0 0 0 0 0 0 0 0 0 0 0 0 0 0 0 0 0 0 0 0 0 0 0 0
0 0 0 0 0 0 0 0 0 0 0 0 0 0 0 0 0 0 0 0 0 0 0 0 0 0 0 0 0 0 0 0 0 0 0 0 0 0 0 0 0 0 0
0 0 0 0 0 0 0 0 0 0 0 0 0 0 0 0 0 0 0 0 0 0 0 0 0 0 0 0 0 0 0 0 0 0 0 0 0 0 0 0 0 0 0
0 0 0 0 0 0 0 0 0 0 0 0 0 0 0 0 0 0 0 0 0 0 0 0 0 0 0 0 0 0 0 0 0 0 0 0 0 0 0 0 0 0 0
0 0 0 0 0 0 0 0 0 0 0 0 0 0 0 0 0 0 0 0 0 0 0 0 0 0 0 0 0 0 0 0 0 0 0 0 0 0 0 0 0 0 0
0 0 0 0 0 0 0 0 0 0 0 0 0 0 0 0 0 0 0 0 0 0 0 0 0 0 0 0 0 0 0 0 0 0 0 0 0 0 0 0 0 0 0
0 0 0 0 0 0 0 0 0 0 0 0 0 0 0 0 0 0 0 0 0 0 0 0 0 0 0 0 0 0 0 0 0 0 0 0 0 0 0 0 0 0 0
0 0 0 0 0 0 0 0 0 0 0 0 0 0 0 0 0 0 0 0 0 0 0 0 0 0 0 0 0 0 0 0 0 0 0 0 0 0 0 0 0 0 0
0 0 0 0 0 0 0 0 0 0 0 0 0 0 0 0 0 0 0 0 0 0 0 0 0 0 0 0 0 0 0 0 0 0 0 0 0 0 0 0 0 0 0
0 0 0 0 0 0 0 0 0 0 0 0 0 0 0 0 0 0 0 0 0 0 0 0 0 0 0 0 0 0 0 0 0 0 0 0 0 0 0 0 0 0 0
0 0 0 0 0 0 0 0 0 0 0 0 0 0 0 0 0 0 0 0 0 0 0 0 0 0 0 0 0 0 0 0 0 0 0 0 0 0 0 0 0 0 0
0 0 0 0 0 0 0 0 0 0 0 0 0 0 0 0 0 0 0 0 0 0 0 0 0 0 0 0 0 0 0 0 0 0 0 0 0 0 0 0 0 0 0
0 0 0 0 0 0 0 0 0 0 0 0 0 0 0 0 0 0 0 0 0 0 0 0 0 0 0 0 0 0 0 0 0 0 0 0 0 0 0 0 0 0 0
0 0 0 0 0 0 0 0 0 0 0 0 0 0 0 0 0 0 0 0 0 0 0 0 0 0 0 0 0 0 0 0 0 0 0 0 0 0 0 0 0 0 0
0 0 0 0 0 0 0 0 0 0 0 0 0 0 0 0 0 0 0 0 0 0 0 0 0 0 0 0 0 0 0 0 0 0 0 0 0 0 0 0 0 0 0
0 0 0 0 0 0 0 0 0 0 0 0 0 0 0 0 0 0 0 0 0 0 0 0 0 0 0 0 0 0 0 0 0 0 0 0 0 0 0 0 0 0 0
0 0 0 0 0 0 0 0 0 0 0 0 0 0 0 0 0 0 0 0 0 0 0 0 0 0 0 0 0 0 0 0 0 0 0 0 0 0 0 0 0 0 0
0 0 0 0 0 0 0 0 0 0 0 0 0 0 0 0 0 0 0 0 0 0 0 0 0 0 0 0 0 0 0 0 0 0 0 0 0 0 0 0 0 0 0
0 0 0 0 0 0 0 0 0 0 0 0 0 0 0 0 0 0 0 0 0 0 0 0 0 0 0 0 0 0 0 0 0 0 0 0 0 0 0 0 0 0 0
0 0 0 0 0 0 0 0 0 0 0 0 0 0 0 0 0 0 0 0 0 0 0 0 0 0 0 0 0 0 0 0 0 0 0 0 0 0 0 0 0 0 0
0 0 0 0 0 0 0 0 0 0 0 0 0 0 0 0 0 0 0 0 0 0 0 0 0 0 0 0 0 0 0 0 0 0 0 0 0 0 0 0 0 0 0
0 0 0 0 0 0 0 0 0 0 0 0 0 0 0 0 0 0 0 0 0 0 0 0 0 0 0 0 0 0 0 0 0 0 0 0 0 0 0 0 0 0 0
0 0 0 0 0 0 0 0 0 0 0 0 0 0 0 0 0 0 0 0 0 0 0 0 0 0 0 0 0 0 0 0 0 0 0 0 0 0 0 0 0 0 0
0 0 0 0 0 0 0 0 0 0 0 0 0 0 0 0 0 0 0 0 0 0 0 0 0 0 0 0 0 0 0 0 0 0 0 0 0 0 0 0 0 0 0
Wind_Speed
6 9 18 17 17 16 15 15 15 14 14 14 15 15 14 14 14 14 14 14 15 15 14 15 15 15 15 15 15 16 16 17 18 17 17 17 17 16 16 16 14 10 16
11 11 19 18 17 17 16 15 15 15 15 15 14 14 14 13 13 13 14 14 14 14 14 14 14 14 14 14 14 14 15 16 16 16 16 14 15 16 15 15 15 10 15
14 12 16 19 18 17 16 16 16 15 14 14 14 14 13 13 13 13 13 13 13 13 13 13 13 13 13 13 13 14 14 15 15 15 14 7 8 14 14 14 14 14 14
15 11 13 19 18 18 17 17 16 15 15 14 14 14 13 12 12 12 12 12 12 12 12 12 12 12 12 12 12 13 13 14 14 13 7 6 6 12 13 13 13 13 13
13 10 14 20 19 18 18 17 16 16 15 15 14 13 13 12 12 12 11 11 12 12 12 12 11 11 11 11 11 12 13 13 13 10 6 6 5 10 11 11 11 11 11
12 10 14 20 19 19 18 18 17 16 15 15 14 13 13 12 12 11 11 11 11 11 11 11 11 10 10 10 10 10 11 11 9 5 5 5 4 8 10 10 9 9 9
12 10 13 20 20 19 19 18 17 16 16 15 14 13 13 12 12 11 11 10 10 10 10 10 9 9 9 8 8 8 9 9 5 4 3 3 4 8 8 8 8 7 7
15 12 12 20 20 19 19 18 17 17 16 15 14 14 13 12 12 11 10 10 9 9 9 8 8 7 7 7 6 7 7 6 5 3 2 2 4 7 7 7 7 7 6
13 11 9 11 14 18 18 18 18 17 16 15 14 14 13 12 11 11 10 9 8 8 7 7 6 5 5 5 4 5 5 6 3 1 0 1 3 5 6 7 7 7 7
10 10 9 9 9 9 11 16 16 16 15 15 14 13 12 11 11 10 9 8 7 7 6 5 4 4 3 3 3 4 5 5 2 0 1 2 2 5 6 7 7 7 7
11 10 10 9 8 8 8 12 13 14 14 13 12 13 10 5 5 6 7 8 7 6 4 3 2 1 1 2 4 4 4 1 1 1 2 3 2 4 6 7 7 8 8
15 13 11 11 10 9 8 7 6 6 7 7 6 7 5 4 4 5 7 8 7 5 4 2 2 1 1 2 4 4 1 1 1 2 3 5 3 4 7 8 8 8 9
16 15 13 12 11 10 7 6 4 4 5 6 7 7 5 4 3 3 2 3 3 3 1 2 1 1 1 2 2 2 2 1 1 2 3 5 4 5 7 8 8 8 9
14 16 14 14 12 11 8 7 6 5 5 5 6 7 5 4 3 3 3 3 2 1 2 2 1 2 2 2 2 2 2 1 1 1 3 5 5 5 6 7 8 8 8
15 16 16 15 14 12 10 8 8 7 7 6 6 7 7 5 5 4 3 3 3 2 2 2 2 2 2 2 2 2 2 2 1 1 2 4 4 4 5 6 7 8 8
15 16 16 16 16 14 11 9 8 8 7 7 6 7 8 6 5 5 4 4 3 3 3 2 2 1 1 1 1 1 2 2 1 1 1 2 3 3 4 5 6 7 8
16 16 17 18 16 16 14 12 9 8 8 8 7 8 8 7 6 6 4 4 4 3 3 2 1 1 0 1 1 2 2 2 2 1 1 1 1 1 2 4 5 6 7
14 15 17 16 16 16 14 12 9 8 8 8 7 7 9 8 8 6 5 4 4 3 3 2 1 0 0 1 2 2 2 2 2 2 1 0 0 0 1 2 4 5 7
16 16 17 16 18 17 14 11 9 9 9 7 7 7 8 9 9 6 5 4 4 3 2 2 1 1 0 1 2 2 2 2 2 1 0 0 1 1 0 2 3 4 6
14 15 17 16 17 15 11 8 7 7 7 7 7 8 9 8 9 7 5 5 5 3 3 2 2 1 1 1 1 2 3 3 1 0 0 1 0 1 1 1 1 3 5
12 14 16 16 15 13 11 10 10 9 8 7 7 9 10 9 9 8 5 5 5 4 4 4 2 2 0 0 1 3 3 3 2 1 1 1 1 1 1 1 1 1 2
13 15 15 16 16 16 13 11 8 7 6 6 6 8 10 10 9 8 8 6 6 4 4 4 3 2 1 1 2 1 3 4 3 3 2 1 1 1 2 2 2 2 2
13 15 15 16 16 15 13 8 6 4 3 4 6 7 8 10 9 8 8 7 6 6 5 5 4 5 3 1 1 3 2 2 3 3 2 2 2 1 2 2 3 3 3
13 12 13 15 14 14 14 13 13 10 9 9 7 6 7 9 9 9 9 8 7 6 6 5 5 4 4 2 1 1 2 3 2 3 3 3 3 2 3 3 3 4 3
10 11 11 12 13 13 14 15 15 10 7 5 5 7 8 7 8 9 9 8 7 6 6 6 5 5 4 4 3 2 1 1 2 2 4 4 3 3 3 4 3 3 3
7 8 10 12 12 13 14 15 15 13 10 9 9 9 8 5 6 8 8 8 7 6 7 6 6 6 5 4 3 3 3 3 3 3 4 4 4 4 3 3 3 2 2
Wind_Direction
169 171 163 157 152 145 138 132 126 123 118 113 108 103 99 97 95 92 91 88 84 82 81 78 76 76 76 75 74 72 70 69 67 64 63 64 64 62 60 59 55 46 52
155 165 161 157 153 148 142 135 129 124 120 115 111 107 103 100 97 93 90 88 86 84 82 80 78 78 78 77 76 74 70 74 72 67 59 53 61 63 60 58 57 55 53
149 159 158 156 153 149 144 138 132 128 123 119 115 111 108 104 100 96 93 90 88 86 84 83 82 80 79 78 77 75 71 75 75 69 55 31 43 63 61 58 57 56 54
151 154 156 157 154 150 146 142 137 133 128 124 120 116 113 110 106 102 100 96 93 90 89 87 85 83 82 81 79 75 73 76 78 68 46 28 24 60 60 57 56 54 52
150 153 159 158 155 152 150 146 143 139 134 129 126 123 120 116 112 108 105 102 98 95 93 91 87 85 84 82 77 73 76 79 77 63 41 26 16 58 60 57 53 52 50
150 154 161 159 158 155 154 151 148 144 139 135 132 129 126 122 118 114 111 108 104 100 96 94 90 86 84 82 78 74 74 79 74 59 41 21 5 52 57 56 53 50 48
153 157 164 162 161 159 157 155 152 148 145 141 139 135 132 128 124 121 118 115 111 106 101 96 92 88 84 81 77 72 70 76 78 66 48 15 9 43 46 44 43 41 41
156 159 164 166 163 161 160 158 156 153 150 148 145 141 138 135 132 129 125 121 116 110 104 98 94 89 84 79 74 67 65 69 76 74 59 358 22 34 34 31 25 21 23
156 158 163 165 164 164 162 161 160 158 155 154 151 147 144 142 140 137 134 131 124 117 110 103 96 89 78 68 59 46 41 51 78 125 200 302 12 22 21 17 10 3 2
158 162 162 161 161 162 163 164 163 162 161 159 155 151 149 150 147 146 143 141 136 131 125 117 105 87 63 36 16 5 12 36 46 188 225 262 359 6 5 1 354 347 345
166 169 165 162 160 158 161 167 164 164 164 161 158 155 149 141 141 148 155 157 154 151 147 140 131 105 358 329 323 325 352 20 357 227 230 246 310 349 352 349 343 339 339
177 177 172 168 165 162 167 163 161 161 161 155 154 154 148 151 159 162 176 175 172 174 181 195 223 277 326 318 313 319 324 311 276 239 238 242 280 329 341 342 340 337 337
178 177 177 173 169 168 166 162 161 156 156 157 160 160 157 156 163 166 170 181 187 189 210 264 297 314 287 273 277 282 277 282 251 251 256 254 276 315 333 340 340 339 339
176 182 179 176 173 173 168 168 167 166 167 171 174 168 162 163 170 173 178 184 189 196 213 244 261 277 277 270 267 275 287 285 267 257 267 269 284 311 329 338 342 345 347
182 184 181 179 178 176 171 173 175 176 176 176 176 177 171 171 177 178 185 187 194 197 204 223 246 274 285 288 292 295 308 305 289 265 278 286 294 311 329 338 345 354 353
189 187 183 182 181 177 178 179 179 180 179 178 183 183 179 176 175 176 184 190 197 199 199 197 215 232 257 277 305 315 307 316 312 296 273 294 301 319 337 344 353 355 354
193 188 185 184 182 181 181 181 179 181 179 183 187 186 183 179 177 177 180 188 197 195 190 183 206 215 269 317 320 318 319 320 315 305 295 285 306 326 356 359 2 357 353
192 188 188 185 184 184 183 182 180 180 182 186 185 186 186 183 178 177 180 192 188 177 175 171 176 161 325 328 308 306 315 315 313 304 295 242 146 14 347 360 0 353 349
194 190 187 186 184 185 184 181 180 179 184 186 183 186 189 186 180 178 184 185 174 169 171 171 159 158 206 292 291 300 318 311 308 323 338 138 156 157 272 333 348 342 339
195 190 187 186 184 181 178 173 173 178 185 185 186 189 186 186 183 179 179 178 168 162 169 167 161 142 170 248 306 327 324 321 336 1 353 53 89 106 59 1 351 334 333
190 187 186 184 182 176 177 178 181 187 186 188 190 188 186 184 182 178 175 174 171 173 179 174 155 148 168 71 43 348 337 350 19 25 19 39 30 27 33 8 333 314 313
188 188 186 186 182 181 183 183 183 176 179 185 185 187 187 184 182 181 177 177 175 170 173 174 159 150 154 114 121 69 351 343 341 357 356 20 14 16 8 347 320 302 289
190 189 188 188 184 183 176 164 147 137 139 170 188 191 191 186 183 180 179 174 176 175 182 184 172 163 171 176 142 145 149 244 303 321 335 346 343 349 331 320 312 304 294
196 190 187 185 183 181 174 173 172 179 185 189 183 185 185 185 182 180 178 176 178 179 180 183 176 166 156 173 178 159 168 166 180 303 313 317 322 308 303 301 301 295 293
189 184 184 180 181 179 179 180 182 186 183 165 165 176 183 185 184 181 177 177 180 181 181 176 171 170 167 171 174 167 156 138 163 186 277 303 311 284 273 275 279 286 292
181 178 176 176 181 180 182 182 186 183 173 167 175 182 185 185 186 185 179 180 181 180 181 182 179 175 179 175 176 172 169 173 190 189 231 269 288 284 278 270 265 268 278